Toronto Pearson, Ontario

9:46 PM EDT on March 25, 2017 (GMT -0400)
Toronto-Pearson International

Weather History for CYYZ - January, 2013

Change the Weather History Date:

Thursday, January 10, 2013

  Actual Average Record
Temperature  
Mean Temperature 36 °F -  
Max Temperature 43 °F 28 °F 45 °F (2017)
Min Temperature 30 °F 12 °F -9 °F (2004)
Degree Days  
Heating Degree Days 28    
Moisture  
Dew Point 27 °F    
Average Humidity 67    
Maximum Humidity 81    
Minimum Humidity 47    
Precipitation  
Precipitation 0.00 in 0.06 in - ()
Sea Level Pressure  
Sea Level Pressure 30.50 in    
Wind  
Wind Speed 9 mph ()    
Max Wind Speed 22 mph    
Max Gust Speed 33 mph    
Visibility 15.0 miles    
Events      
Averages and records for this station are not official NWS values.
T = Trace of Precipitation, MM = Missing Value Source: Averaged Metar Reports

Daily Weather History Graph

Daily Weather History Graph

Search for Another Location

Airport or City:

Trip Planner

Search our weather history database for the weather conditions in past years. The results will help you decide how hot, cold, wet, or windy it might be!

Date:

Astronomy

Jan. 10, 2013 Rise Set
Actual Time 7:50 AM EST 5:01 PM EST
Civil Twilight 7:18 AM EST 5:33 PM EST
Nautical Twilight 6:43 AM EST 6:09 PM EST
Astronomical Twilight 6:08 AM EST 6:44 PM EST
Moon 6:29 AM EST (1/10) 4:07 PM EST (1/10)
Length of Visible Light 10h 15m
Length of Day
9h 10m
Waning Crescent, 2% of the Moon is Illuminated
Jan 10
Waning Crescent
Jan 11
New
Jan 18
First Quarter
Jan 26
Full
Feb 3
Last Quarter

Hourly Weather History & Observations

Time (EST) Temp. Windchill Dew Point Humidity Pressure Visibility Wind Dir Wind Speed Gust Speed Precip Events Conditions
12:00 AM 39.2 °F 29.0 °F 24.8 °F 56% 30.35 in 15.0 mi NW 21.9 mph 33.4 mph N/A   Scattered Clouds
1:00 AM 37 °F - 25 °F 49% 30.40 in 15 mi NW 17.3 mph - -   Mostly Cloudy
1:00 AM 37.4 °F 27.5 °F 24.8 °F 60% 30.40 in 15.0 mi NW 18.4 mph - N/A   Mostly Cloudy
2:00 AM 37.4 °F 28.9 °F 24.8 °F 60% 30.41 in 15.0 mi NW 13.8 mph 19.6 mph N/A   Partly Cloudy
3:00 AM 33.8 °F 26.4 °F 24.8 °F 70% 30.43 in 15.0 mi NW 9.2 mph - N/A   Partly Cloudy
4:00 AM 33.8 °F 26.4 °F 26.6 °F 75% 30.46 in 15.0 mi WSW 9.2 mph - N/A   Mostly Cloudy
5:00 AM 33.8 °F 26.4 °F 24.8 °F 70% 30.48 in 15.0 mi WSW 9.2 mph - N/A   Mostly Cloudy
6:00 AM 33.8 °F 27.0 °F 26.6 °F 75% 30.49 in 15.0 mi WSW 8.1 mph - N/A   Mostly Cloudy
7:00 AM 35 °F - 26 °F 60% 30.53 in 15 mi West 9.2 mph - -   Mostly Cloudy
7:00 AM 33.8 °F 25.8 °F 26.6 °F 75% 30.53 in 15.0 mi West 10.4 mph - N/A   Mostly Cloudy
8:00 AM 33.8 °F 27.7 °F 26.6 °F 75% 30.58 in 15.0 mi West 6.9 mph - N/A   Mostly Cloudy
9:00 AM 35.6 °F 29.9 °F 26.6 °F 70% 30.61 in 15.0 mi West 6.9 mph - N/A   Mostly Cloudy
10:00 AM 37.4 °F 33.8 °F 26.6 °F 65% 30.60 in 15.0 mi NW 4.6 mph - N/A   Mostly Cloudy
11:00 AM 39.2 °F 33.6 °F 26.6 °F 61% 30.59 in 15.0 mi NNW 8.1 mph - N/A   Mostly Cloudy
12:00 PM 39.2 °F 34.2 °F 26.6 °F 61% 30.58 in 15.0 mi North 6.9 mph - N/A   Mostly Cloudy
1:00 PM 41 °F - 28 °F 47% 30.54 in 15 mi Calm Calm - -   Scattered Clouds
1:00 PM 41.0 °F - 28.4 °F 61% 30.54 in 15.0 mi Calm Calm - N/A   Mostly Cloudy
2:00 PM 41.0 °F - 26.6 °F 57% 30.53 in 15.0 mi North 2.3 mph - N/A   Mostly Cloudy
3:00 PM 41.0 °F 36.4 °F 28.4 °F 61% 30.53 in 15.0 mi SSE 6.9 mph - N/A   Mostly Cloudy
4:00 PM 39.2 °F 35.0 °F 28.4 °F 65% 30.53 in 15.0 mi SSE 5.8 mph - N/A   Mostly Cloudy
5:00 PM 37.4 °F 33.8 °F 28.4 °F 70% 30.52 in 15.0 mi South 4.6 mph - N/A   Mostly Cloudy
6:00 PM 37.4 °F 34.9 °F 28.4 °F 70% 30.52 in 15.0 mi South 3.5 mph - N/A   Mostly Cloudy
7:00 PM 37 °F - 29 °F 64% 30.52 in 15 mi SSE 3.5 mph - -   Scattered Clouds
7:00 PM 37.4 °F 33.8 °F 30.2 °F 75% 30.52 in 15.0 mi SSE 4.6 mph - N/A   Mostly Cloudy
8:00 PM 37.4 °F 34.9 °F 30.2 °F 75% 30.51 in 15.0 mi ESE 3.5 mph - N/A   Mostly Cloudy
9:00 PM 37.4 °F 33.8 °F 30.2 °F 75% 30.49 in 15.0 mi SE 4.6 mph - N/A   Mostly Cloudy
10:00 PM 37.4 °F 32.8 °F 32.0 °F 81% 30.47 in 15.0 mi SE 5.8 mph - N/A   Mostly Cloudy
11:00 PM 37.4 °F 30.8 °F 32.0 °F 81% 30.43 in 15.0 mi ESE 9.2 mph - N/A   Mostly Cloudy